Regional Weather Roundup
Issued by NWS

Home | Current Version | Previous Version | Text Only | Print | Product List | Glossary On
Versions: 1 2 3 4 5 6 7 8 9 10 11 12 13 14 15 16 17 18 19 20 21 22 23 24 25 26 27 28 29 30 31 32 33 34 35 36 37 38 39 40 41 42 43 44 45 46 47 48 49 50
000
ASUS43 KDMX 261006
RWRIA

WEATHER ROUNDUP FOR IOWA
NATIONAL WEATHER SERVICE DES MOINES IA
400 AM CST SUN FEB 26 2017

NOTE: "FAIR" INDICATES FEW OR NO CLOUDS BELOW 12,000 FEET WITH NO
SIGNIFICANT WEATHER AND/OR OBSTRUCTIONS TO VISIBILITY.

* - THESE STATIONS ARE NOT NWS STATIONS...THUS NOT UNDER NWS
QUALITY CONTROL.  THEY ALSO DO NOT REPORT WEATHER SUCH
AS PRECIPITATION OR FOG.

IAZ001>003-012>014-020>022-031>034-043>046-261100-
   NORTHWEST IOWA

CITY           SKY/WX    TMP DP  RH WIND       PRES   REMARKS
CARROLL *      CLEAR     28  25  86 SW15      29.82S WCI  17
CHEROKEE *     CLEAR     20  18  92 S6        29.80S WCI  12
DENISON *      CLEAR     25  21  86 SW7       29.81S WCI  17
LE MARS *      PTCLDY    19  16  86 S5        29.80S WCI  13
SHELDON *      CLEAR     19  19 100 SW9       29.75F WCI   9
SIOUX CITY     CLEAR     20  16  84 S3        29.82F
SPENCER        CLEAR     18  14  84 SW9       29.77F WCI   7
STORM LAKE *   PTCLDY    19  18  93 SW12      29.78S WCI   7
$$

IAZ055>058-069>071-079>083-090>094-261100-
   SOUTHWEST IOWA

CITY           SKY/WX    TMP DP  RH WIND       PRES   REMARKS
ATLANTIC *     PTCLDY    30  23  74 NW8G15    29.86R WCI  23
AUDUBON *      CLEAR     27  21  80 SW7       29.83F WCI  19
CLARINDA *     PTCLDY    32  23  69 SW10G16   29.92F WCI  24
COUNCIL BLFS * CLEAR     28  21  74 SW8       29.85S WCI  20
CRESTON *      CLEAR     30  19  64 SW16G22   29.88F WCI  19
HARLAN  *      PTCLDY    25  21  86 SW6       29.88S WCI  18
LAMONI         CLEAR     29  16  58 SW15      29.91S WCI  18
RED OAK *      CLOUDY    30  23  74 SW10      29.88F WCI  21
SHENANDOAH *   CLOUDY    30  23  74 SW9       29.90F WCI  22
$$

IAZ047>049-059>061-072>074-084-261100-
   CENTRAL IOWA

CITY           SKY/WX    TMP DP  RH WIND       PRES   REMARKS
AMES           CLEAR     28  21  75 SW13      29.83F WCI  17
ANKENY *       PTCLDY    30  18  59 S7        29.86F WCI  23
BOONE *        CLEAR     28  19  69 SW12      29.82R WCI  18
CHARITON *     CLOUDY    30  18  59 S15G22    29.89F WCI  19
DES MOINES     MOCLDY    32  17  54 SW15      29.85F WCI  22
GRINNELL*      CLOUDY    28  19  69 S10       29.88F WCI  19
KNOXVILLE *    PTCLDY    32  16  51 SW15G22   29.87F WCI  22
MARSHALLTOWN   PTCLDY    29  18  63 S17       29.83F WCI  17
NEWTON *       PTCLDY    28  18  64 S10       29.86F WCI  19
PELLA *        PTCLDY    31  18  56 S13       29.90F WCI  22
PERRY *          N/A     25  20  81 SW10      29.84R WCI  15
$$

IAZ004>006-015-016-023>025-035-036-261100-
   NORTH CENTRAL IOWA

CITY           SKY/WX    TMP DP  RH WIND       PRES   REMARKS
ALGONA *       FLURRIES  16  14  93 S9        29.77F WCI   4
CLARION *      CLOUDY    27  21  80 SW12      29.80F WCI  16
ESTHERVILLE    CLEAR     19  15  84 SW12      29.75F WCI   7
FORT DODGE *   PTCLDY    25  14  63 SW8       29.81S WCI  16
MASON CITY     MOCLDY    22  16  78 S10       29.80F WCI  11
FOREST CITY *    N/A     21  18  86 SW6       29.78F WCI  14
WEBSTER CITY * PTCLDY    25  18  74 SW13      29.79S WCI  13
IOWA FALLS *   CLOUDY    29  20  71 S13       29.82S WCI  18
$$

IAZ007>011-017>019-026>030-037>042-050>054-066-261100-
   NORTHEAST IOWA

CITY           SKY/WX    TMP DP  RH WIND       PRES   REMARKS
CEDAR RAPIDS   CLOUDY    29  18  63 S15G23    29.89F WCI  18
CHARLES CITY * CLOUDY    27  21  80 S10       29.81F WCI  17
CLINTON *      CLOUDY    28  21  75 S13       29.97F WCI  17
DECORAH *      CLOUDY    28  19  69 S12G20    29.81S WCI  18
DUBUQUE        CLOUDY    26  19  74 S16       29.90F WCI  14
MONTICELLO *   CLOUDY    28  19  69 S13G20    29.90F WCI  18
OELWEIN *      CLOUDY    28  21  74 S17       29.84F WCI  16
WATERLOO       MOCLDY    29  19  66 S13       29.83F WCI  19
$$

IAZ064-065-067-068-078-261100-
   EAST CENTRAL IOWA

CITY           SKY/WX    TMP DP  RH WIND       PRES   REMARKS
DAVENPORT      CLOUDY    28  17  63 S15       29.96F WCI  16
IOWA CITY      CLOUDY    30  18  60 S13       29.95F WCI  20
MUSCATINE *    CLOUDY    30  19  64 S9        29.98S WCI  22
QUAD CITIES    CLOUDY    30  16  56 S13       29.97F WCI  20
$$

IAZ062-063-075>077-085>089-095>099-261100-
   SOUTHEAST IOWA

CITY           SKY/WX    TMP DP  RH WIND       PRES   REMARKS
BURLINGTON     CLOUDY    30  17  58 S13       29.99F WCI  20
FAIRFIELD *    CLOUDY    32  16  51 S14       29.94F WCI  22
KEOKUK *       MOCLDY    30  16  55 S13       29.99S WCI  20
CENTERVILLE *    N/A     30  16  55 S14       29.95S WCI  20
OTTUMWA        CLOUDY    31  16  54 S13       29.93S WCI  21
WASHINGTON *   CLOUDY    30  19  64 S15       29.95F WCI  19
$$

ABBREVIATIONS USED IN REMARKS
   TC - TEMPERATURES IN CELSIUS
  WCI - WIND CHILL INDEX
   HX - HEAT INDEX
  VSB - VISIBILITY
$$





USA.gov is the U.S. government's official web portal to all federal, state and local government web resources and services.